STARLINK-30233, 57302

Orbit data source: Space-Track

STARLINK-30233, 57302 is a payload satellite owned by SpaceX/Seattle (US) in LEO that was launched on Mon, 10 Jul 2023 UTC via an FALCON 9 launch vehicle from the Air Force Eastern Test Range (AFETR). Payload-class satellites include a variety of spacecraft equipped with specific instruments for various scientific and technological missions. These include communications satellites like Starlink; space stations such as the ISS; scientific satellites like the Hubble; Earth observation satellites from companies like Planet Labs, Umbra, and HawkEye 360; GPS; miniature CubeSats for education and research; and military/defense satellites.

Loading next visibility...
Identifier
57302, 2023-096N
Orbit
LEO
Country
Flag of USUS
Related business
Manufacturer
SpaceX/Seattle
Mission
Operational Commercial Communications
Bus & Motor
STARLINK V2M, Unknown motor
Mass
730 kg wet, ~700 kg dry
Launch date (UTC)
2023-07-10 (2 years ago)
Launch vehicle
FALCON 9
Launch site
Air Force Eastern Test Range (AFETR)
Object type
Payload
Rocket body
Debris
Shape & HBR
Box + 2 Pan, 17.7 m
Radar Cross Section
33.884 m², Large (>1 m²)

Expand to show TLE details & history
Last TLE update: 19 hours ago

TLE from 19 hours ago
0 STARLINK-30233
1 57302U 23096N   25340.79148228  .00001771  00000-0  14609-3 0  9991
2 57302  43.0052   7.8784 0001195 277.1412  82.9295 15.02548475132740
Epoch: 2025-12-06T18:59Z
TLE epoch observation values (Epoch: 2025-12-06T18:59:44.068Z)
Latitude
-0.00001°
Longitude
7.13063°
Altitude
558.718 km
Speed
7.584 km/s
True Right ascension
00h 31m 30s
True Declination
0° 00' 00"
Sunlit
Object was in daylight at epoch
Visualization orbit readout
Latitude
Unknown
Longitude
Unknown
Altitude
Unknown
Speed
Unknown
Apparent Right ascension
Unknown
Apparent Declination
Unknown
Sunlit
N/A
Visualization observer readout
Local Sidereal Time
12:19:54
Azimuth
Unknown
Elevation
Unknown
Doppler factor
Unknown
Orbital elements
Apogee altitude
561.793 km
Perigee altitude
560.135 km
Semi-major axis
6,939.101 km
Eccentricity
0.00012
Inclination
43.0052°
RAAN
7.8784°
Arg. of periapsis
277.1412°
True anomaly
82.94309°
Mean anomaly
82.9295°
Eccentric anomaly
82.93629°
Mean motion
3.75481 °/min
Orbital period
95.88 mins
BSTAR
0.00014609
Loading maneuver chart data...
Computing Atmospheric mass density...
Loading historical data...
Loading historical data...
Loading historical data...
Loading historical data...
Loading historical data...
Loading historical data...
Loading historical data...

Documentation

Showing up to 5 results
|